Zurück zum Katalog

STARLINK-34833

AktivKommunikationVLEO
NORAD 65218·PAYLOAD·🇺🇸 United States

Gestartet Aug 14, 2025 von Cape Canaveral Space Force Station

Loading…

Nächste Überflüge (nächste 24 Stunden)

TLE

AktuellSource: CelesTrak SupGP

Epoche: Sep 15, 2026, 03:16 UTC

1 65218C 25176W   26258.13659722  .00073497  00000+0  21714-2 0  2585
2 65218  53.1593 348.9242 0001122  92.6132 129.3184 15.34355912    18

Verfolge STARLINK-34833 in Echtzeit mit AllMySat

Download on the App Store